TimeMDT,TemperatureF,Dew PointF,Humidity,Sea Level PressureIn,VisibilityMPH,Wind Direction,Wind SpeedMPH,Gust SpeedMPH,PrecipitationIn,Events,Conditions,WindDirDegrees,DateUTC
12:09 AM,41.0,41.0,100,30.67,0.2,SE,12.7,19.6,N/A,Fog,Fog,130,2013-09-11 06:09:00
12:29 AM,41.0,41.0,100,30.66,10.0,ESE,12.7,19.6,N/A,,Overcast,110,2013-09-11 06:29:00
12:49 AM,41.0,41.0,100,30.65,0.2,East,15.0,-,N/A,,Unknown,80,2013-09-11 06:49:00
1:09 AM,41.0,41.0,100,30.67,0.2,ESE,4.6,-,N/A,Fog,Fog,110,2013-09-11 07:09:00
1:29 AM,41.0,41.0,100,30.66,0.2,ENE,9.2,-,N/A,Fog,Fog,60,2013-09-11 07:29:00
1:49 AM,41.0,41.0,100,30.66,0.2,East,10.4,-,N/A,Fog,Fog,90,2013-09-11 07:49:00
2:09 AM,41.0,41.0,100,30.67,0.2,East,6.9,-,N/A,Fog,Fog,80,2013-09-11 08:09:00
2:29 AM,41.0,41.0,100,30.66,0.2,ENE,9.2,-,N/A,Fog,Fog,60,2013-09-11 08:29:00
2:49 AM,41.0,41.0,100,30.66,0.2,ENE,10.4,-,N/A,Fog,Fog,70,2013-09-11 08:49:00
3:09 AM,41.0,41.0,100,30.66,0.2,ENE,5.8,-,N/A,Fog,Fog,70,2013-09-11 09:09:00
3:29 AM,41.0,41.0,100,30.65,0.2,East,5.8,-,N/A,Fog,Fog,90,2013-09-11 09:29:00
3:49 AM,41.0,41.0,100,30.65,0.2,East,5.8,-,N/A,Fog,Fog,80,2013-09-11 09:49:00
4:09 AM,42.8,41.0,93,30.65,0.2,East,5.8,-,N/A,Fog,Fog,100,2013-09-11 10:09:00
4:29 AM,42.8,41.0,93,30.65,0.2,ENE,5.8,-,N/A,Fog,Fog,70,2013-09-11 10:29:00
4:49 AM,42.8,41.0,93,30.65,0.2,ENE,9.2,-,N/A,Fog,Fog,70,2013-09-11 10:49:00
5:09 AM,41.0,41.0,100,30.65,0.2,ENE,5.8,-,N/A,Fog,Fog,70,2013-09-11 11:09:00
5:29 AM,41.0,41.0,100,30.65,0.2,ENE,6.9,-,N/A,Fog,Fog,60,2013-09-11 11:29:00
5:49 AM,41.0,41.0,100,30.65,0.2,East,10.4,-,N/A,Fog,Fog,80,2013-09-11 11:49:00
6:09 AM,42.8,41.0,93,30.65,0.2,ENE,11.5,-,N/A,,Unknown,60,2013-09-11 12:09:00
6:29 AM,42.8,41.0,93,30.65,0.2,ENE,10.4,-,N/A,Rain,Light Rain,70,2013-09-11 12:29:00
6:49 AM,42.8,41.0,93,30.65,0.2,ENE,13.8,-,N/A,Rain,Light Rain,70,2013-09-11 12:49:00
7:09 AM,42.8,41.0,93,30.66,0.2,ENE,13.8,-,N/A,,Unknown,60,2013-09-11 13:09:00
7:29 AM,42.8,41.0,93,30.66,0.2,ENE,12.7,16.1,N/A,Rain,Light Rain,70,2013-09-11 13:29:00
7:49 AM,42.8,41.0,93,30.66,0.2,ENE,11.5,-,N/A,Rain,Light Rain,70,2013-09-11 13:49:00
8:09 AM,42.8,41.0,93,30.66,0.2,ENE,12.7,-,N/A,Rain,Light Rain,70,2013-09-11 14:09:00
8:29 AM,41.0,41.0,100,30.66,0.2,ENE,18.4,-,N/A,Rain,Light Rain,70,2013-09-11 14:29:00
8:49 AM,41.0,41.0,100,30.66,0.2,ENE,16.1,20.7,N/A,Fog,Fog,60,2013-09-11 14:49:00
9:09 AM,41.0,41.0,100,30.68,0.2,ENE,11.5,-,N/A,Fog,Fog,70,2013-09-11 15:09:00
9:29 AM,42.8,41.0,93,30.68,0.2,East,8.1,-,N/A,Fog,Fog,80,2013-09-11 15:29:00
9:49 AM,42.8,41.0,93,30.69,0.2,ENE,10.4,-,N/A,Fog,Fog,70,2013-09-11 15:49:00
10:09 AM,42.8,42.8,100,30.69,0.2,ENE,8.1,-,N/A,Fog,Fog,70,2013-09-11 16:09:00
10:29 AM,42.8,42.8,100,30.69,0.2,East,10.4,-,N/A,Fog,Fog,80,2013-09-11 16:29:00
10:49 AM,42.8,42.8,100,30.69,0.2,East,9.2,-,N/A,Fog,Fog,80,2013-09-11 16:49:00
11:09 AM,44.6,42.8,93,30.69,0.2,East,8.1,-,N/A,Fog,Fog,80,2013-09-11 17:09:00
11:29 AM,44.6,42.8,93,30.69,0.2,ENE,9.2,-,N/A,Fog,Fog,60,2013-09-11 17:29:00
11:49 AM,44.6,42.8,93,30.70,0.2,East,5.8,-,N/A,Fog,Fog,80,2013-09-11 17:49:00
12:09 PM,44.6,42.8,93,30.70,0.2,East,3.5,-,N/A,Rain,Light Rain,80,2013-09-11 18:09:00
12:29 PM,44.6,42.8,93,30.69,0.2,ENE,4.6,-,N/A,Fog,Fog,60,2013-09-11 18:29:00
12:49 PM,44.6,44.6,100,30.69,0.2,ENE,8.1,-,N/A,Fog,Fog,70,2013-09-11 18:49:00
1:09 PM,44.6,44.6,100,30.69,0.2,East,10.4,-,N/A,Fog,Fog,80,2013-09-11 19:09:00
1:29 PM,46.4,44.6,93,30.68,0.2,ENE,9.2,-,N/A,Fog,Fog,60,2013-09-11 19:29:00
1:49 PM,44.6,44.6,100,30.68,0.2,ENE,12.7,-,N/A,Fog,Fog,70,2013-09-11 19:49:00
2:09 PM,44.6,44.6,100,30.68,0.2,East,12.7,-,N/A,Fog,Fog,80,2013-09-11 20:09:00
2:29 PM,46.4,44.6,93,30.67,0.2,ENE,16.1,-,N/A,Fog,Fog,70,2013-09-11 20:29:00
2:49 PM,46.4,44.6,93,30.66,0.2,ENE,17.3,-,N/A,Fog,Fog,70,2013-09-11 20:49:00
3:09 PM,46.4,44.6,93,30.66,0.2,ENE,16.1,-,N/A,Fog,Fog,60,2013-09-11 21:09:00
3:29 PM,46.4,44.6,93,30.67,0.2,East,16.1,20.7,N/A,Fog,Fog,80,2013-09-11 21:29:00
3:49 PM,44.6,44.6,100,30.67,0.2,NE,12.7,-,N/A,,Overcast,50,2013-09-11 21:49:00
4:09 PM,44.6,42.8,93,30.68,0.2,ENE,8.1,-,N/A,Rain-Thunderstorm,Rain,60,2013-09-11 22:09:00
4:29 PM,44.6,42.8,93,30.67,0.2,ENE,15.0,-,N/A,Rain,Light Rain,60,2013-09-11 22:29:00
4:49 PM,42.8,41.0,93,30.67,7.0,ENE,16.1,21.9,N/A,Rain-Thunderstorm,Light Thunderstorms and Rain,70,2013-09-11 22:49:00
5:09 PM,42.8,42.8,100,30.68,10.0,ENE,8.1,-,N/A,,Scattered Clouds,60,2013-09-11 23:09:00
5:29 PM,42.8,42.8,100,30.68,1.5,ENE,8.1,-,N/A,,Mostly Cloudy,70,2013-09-11 23:29:00
5:49 PM,42.8,41.0,93,30.68,10.0,ENE,8.1,-,N/A,,Scattered Clouds,70,2013-09-11 23:49:00
6:09 PM,42.8,42.8,100,30.67,10.0,East,8.1,-,N/A,,Clear,80,2013-09-12 00:09:00
6:29 PM,44.6,42.8,93,30.67,10.0,East,10.4,-,N/A,,Scattered Clouds,80,2013-09-12 00:29:00
6:49 PM,44.6,42.8,93,30.67,7.0,ENE,10.4,-,N/A,,Mostly Cloudy,70,2013-09-12 00:49:00
7:09 PM,44.6,42.8,93,30.67,0.2,ENE,11.5,-,N/A,Fog,Fog,70,2013-09-12 01:09:00
7:29 PM,44.6,42.8,93,30.68,0.2,ENE,11.5,-,N/A,Fog,Fog,70,2013-09-12 01:29:00
7:49 PM,44.6,42.8,93,30.69,0.2,ENE,12.7,-,N/A,Fog,Fog,70,2013-09-12 01:49:00
8:09 PM,44.6,42.8,93,30.70,0.2,ENE,12.7,-,N/A,,Unknown,60,2013-09-12 02:09:00
8:29 PM,44.6,42.8,93,30.70,0.2,ENE,17.3,-,N/A,Fog,Fog,60,2013-09-12 02:29:00
8:49 PM,44.6,42.8,93,30.71,0.2,ENE,15.0,-,N/A,Fog,Fog,60,2013-09-12 02:49:00
9:09 PM,44.6,42.8,93,30.70,0.2,ENE,15.0,-,N/A,,Unknown,60,2013-09-12 03:09:00
9:29 PM,44.6,42.8,93,30.71,0.2,ENE,13.8,-,N/A,,Unknown,70,2013-09-12 03:29:00
9:49 PM,42.8,42.8,100,30.71,0.2,ENE,15.0,-,N/A,,Unknown,60,2013-09-12 03:49:00
10:09 PM,42.8,42.8,100,30.71,0.2,ENE,10.4,-,N/A,Fog,Fog,60,2013-09-12 04:09:00
10:29 PM,42.8,42.8,100,30.71,0.2,ENE,9.2,-,N/A,Fog,Fog,70,2013-09-12 04:29:00
10:49 PM,44.6,42.8,93,30.71,0.2,ENE,11.5,-,N/A,Fog,Fog,60,2013-09-12 04:49:00
11:09 PM,44.6,42.8,93,30.71,0.2,ENE,11.5,-,N/A,Fog,Fog,60,2013-09-12 05:09:00
11:29 PM,42.8,42.8,100,30.71,0.2,East,11.5,-,N/A,Fog,Fog,80,2013-09-12 05:29:00
11:49 PM,44.6,42.8,93,30.71,0.2,ENE,9.2,-,N/A,Fog,Fog,70,2013-09-12 05:49:00